Location: Bermeries
(50.2863°N, 3.7551°E)
Time: 10:05:21
(UTC+00:00)

Okean 1-7 - Pass Details

Date: 23 May 2024
Orbit: 579 x 604 km, 82.5° (Epoch: 14 June)

Event Time Altitude Azimuth Distance (km) Brightness Sun altitude
Exits shadow 01:30:18 27° 215° (SW) 1,173 3.9 -15.1°
Maximum altitude 01:32:29 57° 283° (WNW) 714 3.3 -15.0°
Drops below altitude 10° 01:36:45 10° 3° (N) 1,959 6.7 -14.7°
Sets 01:39:01 0° 8° (N) 2,870 7.9 -14.5°
